GW5651 Weather Reports


Display with metric or nautical units.
time (UTC)temp
F
wind
direction
speed
MPH
gust
MPH
rain 1hr
in
rain 24hr
in
rain mn
in
humidity
%
barometer
mb
20260503200529 65 275 4.0 4.0 0.00 0.00 0.00 44 1005.3
20260503190529 66 236 0.0 1.0 0.00 0.00 0.00 42 1006.1
20260503183529 66 211 0.0 1.0 0.00 0.00 0.00 46 1006.5
20260503180529 64 209 0.0 6.0 0.00 0.00 0.00 51 1007.2
20260503173528 61 244 0.0 2.0 0.00 0.00 0.00 52 1007.6
20260503170529 59 199 0.0 2.0 0.00 0.00 0.00 57 1008.2
20260503150528 57 267 1.0 2.0 0.00 0.00 0.00 54 1009.0
20260503130527 50 268 0.0 0.0 0.00 0.00 0.00 58 1010.2
20260503110527 48 284 0.0 2.0 0.00 0.00 0.00 57 1010.1
20260503080526 46 187 0.0 0.0 0.00 0.00 0.00 64 1011.5
20260503070526 44 187 0.0 0.0 0.00 0.00 0.00 65 1011.8
20260503050526 42 187 0.0 0.0 0.00 0.00 0.00 68 1013.0
20260503043526 42 187 0.0 0.0 0.00 0.00 0.00 70 1013.0
20260503040525 42 187 0.0 0.0 0.00 0.00 0.00 70 1013.2
20260503033525 42 187 0.0 0.0 0.00 0.00 0.00 70 1013.4
20260503030525 43 187 0.0 0.0 0.00 0.00 0.00 68 1013.9
20260503023525 43 187 0.0 1.0 0.00 0.00 0.00 66 1014.1
20260503020525 44 187 1.0 1.0 0.00 0.00 0.00 64 1014.0
20260503013525 45 187 0.0 0.0 0.00 0.00 0.00 63 1013.9
20260503010525 46 187 1.0 2.0 0.00 0.00 0.00 63 1013.9
20260503003524 48 190 0.0 1.0 0.00 0.00 0.00 61 1013.9
20260503000524 49 180 0.0 2.0 0.00 0.00 0.00 58 1014.0
20260502230524 49 188 3.0 4.0 0.00 0.00 0.00 52 1014.4
20260502223524 50 198 2.0 4.0 0.00 0.00 0.00 50 1014.6
20260502220524 50 196 2.0 5.0 0.00 0.00 0.00 51 1015.0
20260502213524 50 196 2.0 2.0 0.00 0.00 0.00 50 1015.1
20260502210523 50 202 2.0 2.0 0.00 0.00 0.00 51 1015.2
20260502203523 51 199 3.0 5.0 0.00 0.00 0.00 50 1015.7